• In Hungary
  • List of Countries
  • For 7 days
  • Water Temperature
  • Satellite Maps
  • Weather Map
  • News
  • Weather Widgets
  • user-avatar
    Login

    Hourly Weather Kukuy

    Today, 23 July, Monday

    Time Temperature Precipitation Wind Pressure Humidity
    00:00 +19°C° 0.2 mm 5 mps 740 mmHg 96%
    01:00 +19°C° 0.1 mm 5 mps 740 mmHg 96%
    02:00 +19°C° 0.1 mm 5 mps 740 mmHg 96%
    03:00 +19°C° 0.1 mm 5 mps 740 mmHg 96%
    04:00 +17°C° 0 mm 5 mps 740 mmHg 96%
    05:00 +17°C° 0 mm 5 mps 740 mmHg 96%
    06:00 +17°C° 0 mm 5 mps 740 mmHg 96%
    07:00 +17°C° 0.1 mm 5 mps 740 mmHg 95%
    08:00 +17°C° 0.1 mm 5 mps 740 mmHg 95%
    09:00 +17°C° 0.1 mm 5 mps 740 mmHg 94%
    10:00 +17°C° 0.1 mm 5 mps 740 mmHg 93%
    11:00 +19°C° 0.1 mm 5 mps 740 mmHg 92%
    12:00 +19°C° 0.1 mm 5 mps 740 mmHg 91%
    13:00 +19°C° 0.1 mm 5 mps 740 mmHg 90%
    14:00 +20°C° 0.1 mm 5 mps 741 mmHg 89%
    15:00 +20°C° 0.1 mm 5 mps 741 mmHg 89%
    16:00 +21°C° 0.1 mm 5 mps 741 mmHg 88%
    17:00 +21°C° 0.1 mm 5 mps 740 mmHg 88%
    18:00 +21°C° 0.1 mm 5 mps 740 mmHg 88%
    19:00 +21°C° 0.2 mm 5 mps 740 mmHg 90%
    20:00 +20°C° 0.2 mm 5 mps 741 mmHg 91%
    21:00 +20°C° 0.2 mm 5 mps 741 mmHg 93%
    22:00 +19°C° 0.7 mm 5 mps 741 mmHg 94%
    23:00 +19°C° 0.7 mm 5 mps 741 mmHg 96%

    Tomorrow, 24 July, Tuesday

    Time Temperature Precipitation Wind Pressure Humidity
    00:00 +19°C° 0.7 mm 4 mps 741 mmHg 97%
    01:00 +19°C° 0.3 mm 4 mps 741 mmHg 97%
    02:00 +19°C° 0.3 mm 4 mps 741 mmHg 97%
    03:00 +19°C° 0.3 mm 4 mps 741 mmHg 97%
    04:00 +19°C° 0.1 mm 4 mps 741 mmHg 97%
    05:00 +19°C° 0.1 mm 4 mps 741 mmHg 96%
    06:00 +19°C° 0.1 mm 4 mps 741 mmHg 96%
    07:00 +19°C° 0 mm 4 mps 742 mmHg 96%
    08:00 +20°C° 0 mm 4 mps 742 mmHg 95%
    09:00 +20°C° 0 mm 3 mps 742 mmHg 94%
    10:00 +21°C° 0.1 mm 4 mps 742 mmHg 92%
    11:00 +22°C° 0.1 mm 4 mps 742 mmHg 90%
    12:00 +22°C° 0.1 mm 4 mps 743 mmHg 88%
    13:00 +24°C° 0.2 mm 3 mps 743 mmHg 85%
    14:00 +25°C° 0.2 mm 3 mps 743 mmHg 82%
    15:00 +26°C° 0.2 mm 3 mps 743 mmHg 79%
    16:00 +26°C° 0.3 mm 3 mps 743 mmHg 81%
    17:00 +26°C° 0.3 mm 3 mps 743 mmHg 82%
    18:00 +26°C° 0.3 mm 3 mps 743 mmHg 84%
    19:00 +25°C° 0.2 mm 3 mps 743 mmHg 87%
    20:00 +22°C° 0.2 mm 3 mps 744 mmHg 90%
    21:00 +21°C° 0.2 mm 3 mps 744 mmHg 92%
    22:00 +21°C° 0 mm 3 mps 744 mmHg 93%
    23:00 +20°C° 0 mm 3 mps 744 mmHg 93%

    Day after tomorrow, 25 July, Wednesday

    Time Temperature Precipitation Wind Pressure Humidity
    00:00 +20°C° 0 mm 3 mps 744 mmHg 94%
    01:00 +20°C° 0 mm 3 mps 744 mmHg 94%
    02:00 +20°C° 0 mm 3 mps 744 mmHg 94%
    03:00 +19°C° 0 mm 3 mps 745 mmHg 94%
    04:00 +19°C° 0.5 mm 3 mps 745 mmHg 94%
    05:00 +19°C° 0.5 mm 4 mps 744 mmHg 93%
    06:00 +19°C° 0.5 mm 4 mps 744 mmHg 92%
    07:00 +19°C° 0.4 mm 5 mps 745 mmHg 90%
    08:00 +20°C° 0.4 mm 5 mps 745 mmHg 87%
    09:00 +20°C° 0.4 mm 6 mps 745 mmHg 85%
    10:00 +21°C° 0 mm 6 mps 745 mmHg 79%
    11:00 +22°C° 0 mm 6 mps 745 mmHg 74%
    12:00 +23°C° 0 mm 7 mps 745 mmHg 69%
    13:00 +24°C° 0 mm 7 mps 744 mmHg 68%
    14:00 +24°C° 0 mm 6 mps 744 mmHg 68%
    15:00 +26°C° 0 mm 6 mps 744 mmHg 67%
    16:00 +24°C° 0 mm 6 mps 744 mmHg 70%
    17:00 +24°C° 0 mm 6 mps 744 mmHg 73%
    18:00 +23°C° 0 mm 6 mps 744 mmHg 76%
    19:00 +22°C° 0.3 mm 6 mps 744 mmHg 78%
    20:00 +21°C° 0.3 mm 6 mps 745 mmHg 80%
    21:00 +21°C° 0.3 mm 6 mps 745 mmHg 82%
    22:00 +20°C° 0.2 mm 5 mps 745 mmHg 82%
    23:00 +20°C° 0.2 mm 5 mps 745 mmHg 82%

    26 July, Thursday

    Time Temperature Precipitation Wind Pressure Humidity
    00:00 +19°C° 0.2 mm 5 mps 745 mmHg 82%
    01:00 +18°C° 0.1 mm 4 mps 745 mmHg 83%
    02:00 +18°C° 0.1 mm 4 mps 746 mmHg 84%
    03:00 +17°C° 0.1 mm 4 mps 746 mmHg 85%
    04:00 +17°C° 0 mm 4 mps 746 mmHg 86%
    05:00 +17°C° 0 mm 4 mps 746 mmHg 86%
    06:00 +17°C° 0 mm 4 mps 746 mmHg 87%
    07:00 +19°C° 0 mm 4 mps 746 mmHg 83%
    08:00 +21°C° 0 mm 4 mps 747 mmHg 79%
    09:00 +22°C° 0 mm 5 mps 747 mmHg 75%
    10:00 +23°C° 0 mm 5 mps 747 mmHg 73%
    11:00 +26°C° 0 mm 5 mps 747 mmHg 71%
    12:00 +27°C° 0 mm 5 mps 747 mmHg 69%
    13:00 +27°C° 0 mm 5 mps 747 mmHg 69%
    14:00 +28°C° 0 mm 5 mps 747 mmHg 69%
    15:00 +28°C° 0 mm 5 mps 747 mmHg 69%
    16:00 +28°C° 0 mm 5 mps 747 mmHg 71%
    17:00 +28°C° 0 mm 4 mps 747 mmHg 73%
    18:00 +28°C° 0 mm 4 mps 748 mmHg 75%
    19:00 +27°C° 0 mm 4 mps 748 mmHg 76%
    20:00 +25°C° 0 mm 4 mps 748 mmHg 78%
    21:00 +23°C° 0 mm 4 mps 748 mmHg 80%
    22:00 +22°C° 0 mm 4 mps 748 mmHg 80%
    23:00 +22°C° 0 mm 4 mps 748 mmHg 81%

    27 July, Friday

    Time Temperature Precipitation Wind Pressure Humidity
    00:00 +21°C° 0 mm 3 mps 749 mmHg 81%
    01:00 +22°C° 0 mm 4 mps 749 mmHg 82%
    02:00 +22°C° 0 mm 4 mps 749 mmHg 83%
    03:00 +22°C° 0 mm 4 mps 749 mmHg 84%
    04:00 +21°C° 0.2 mm 4 mps 749 mmHg 85%
    05:00 +21°C° 0.2 mm 3 mps 749 mmHg 87%
    06:00 +21°C° 0.2 mm 3 mps 749 mmHg 88%
    07:00 +22°C° 0 mm 4 mps 750 mmHg 84%
    08:00 +23°C° 0 mm 4 mps 750 mmHg 80%
    09:00 +25°C° 0 mm 4 mps 750 mmHg 77%
    10:00 +26°C° 0 mm 4 mps 750 mmHg 73%
    11:00 +28°C° 0 mm 5 mps 750 mmHg 69%
    12:00 +29°C° 0 mm 5 mps 750 mmHg 65%
    13:00 +29°C° 0 mm 5 mps 750 mmHg 63%
    14:00 +30°C° 0 mm 5 mps 750 mmHg 61%
    15:00 +30°C° 0 mm 5 mps 750 mmHg 59%
    16:00 +30°C° 0 mm 4 mps 750 mmHg 63%
    17:00 +29°C° 0 mm 3 mps 750 mmHg 66%
    18:00 +29°C° 0 mm 3 mps 750 mmHg 70%
    19:00 +27°C° 0 mm 3 mps 750 mmHg 72%
    20:00 +25°C° 0 mm 3 mps 750 mmHg 74%
    21:00 +24°C° 0 mm 3 mps 750 mmHg 76%
    22:00 +22°C° 0 mm 3 mps 750 mmHg 77%
    23:00 +21°C° 0 mm 2 mps 750 mmHg 78%

    28 July, Saturday

    Time Temperature Precipitation Wind Pressure Humidity
    00:00 +21°C° 0 mm 2 mps 750 mmHg 80%
    01:00 +21°C° 0 mm 2 mps 750 mmHg 80%
    02:00 +20°C° 0 mm 2 mps 750 mmHg 80%
    03:00 +20°C° 0 mm 3 mps 750 mmHg 80%
    04:00 +20°C° 0 mm 3 mps 750 mmHg 82%
    05:00 +20°C° 0 mm 3 mps 751 mmHg 84%
    06:00 +20°C° 0 mm 3 mps 751 mmHg 86%
    07:00 +21°C° 0 mm 3 mps 751 mmHg 83%
    08:00 +24°C° 0 mm 3 mps 751 mmHg 80%
    09:00 +25°C° 0 mm 4 mps 751 mmHg 77%
    10:00 +26°C° 0 mm 4 mps 751 mmHg 72%
    11:00 +27°C° 0 mm 4 mps 751 mmHg 67%
    12:00 +29°C° 0 mm 4 mps 751 mmHg 62%
    13:00 +29°C° 0 mm 4 mps 750 mmHg 60%
    14:00 +29°C° 0 mm 4 mps 750 mmHg 59%
    15:00 +30°C° 0 mm 4 mps 750 mmHg 57%
    16:00 +30°C° 0 mm 4 mps 750 mmHg 59%
    17:00 +29°C° 0 mm 3 mps 750 mmHg 62%
    18:00 +29°C° 0 mm 3 mps 750 mmHg 64%
    19:00 +27°C° 0 mm 3 mps 750 mmHg 67%
    20:00 +26°C° 0 mm 3 mps 750 mmHg 69%
    21:00 +24°C° 0 mm 2 mps 750 mmHg 72%
    22:00 +22°C° 0 mm 3 mps 751 mmHg 73%
    23:00 +22°C° 0 mm 3 mps 751 mmHg 74%
    Show more